sat.trackr.live / text

‹ back to catalog

STARLINK-34719

NORAD 64943 · 2025-158M

PAYLOAD ACTIVE UNKNOWN

§ Identity

Operator
Country
US
Launch date
2025-07-27
Launch site
AFWTR
Launch vehicle
Mass (kg)
RCS (m²)

Purposes: comms

External: N2YO · Heavens-Above · Gunter

§ Orbital elements

Epoch: 2026-09-20T13:44:06.828864Z

Period
93.91 min
Inclination
97.2817°
Eccentricity
0.0002527
Mean motion
15.33455104 rev/d
Perigee alt
463.8 km
Apogee alt
467.2 km
Semi-major
6,843.7 km
B*
3.9614e-4
RAAN
121.8221°
Arg perigee
111.1743°
Mean anomaly
248.9770°
Rev number
6,471

§ Raw data

STARLINK-347191 64943U 25158M   26263.57230126  .00012740  00000+0  39614-3 0  99912 64943  97.2817 121.8221 0002527 111.1743 248.9770 15.33455104 64719

JSON: /api/v1/satellites/64943 · /tle

For live sub-satellite position, see the globe view (requires WebGL).

§ Visibility from observer

Set your observer location to see the next 7 days of passes ≥ 10°. The values pass through the URL so the page stays shareable.

No JS? Fill the form by hand. The geolocation button needs JavaScript.